Wind_Speed
17 18 19 18 16 15 15 14 15 13 9 9 10 11 11 11 11 10 10 10 11 12 14 15 19 20 17 16 15 15 19 22 20 17 15 14 13 13 13 13 11 9 6 7 9 10 10 11 12 14 15 16 17 16 14 14 13 14 14 15 15 15 16 18 18 18 18 18 18 18 18 18 18 19 19 19 20 20 21 22 23 23 24 24 24 25
17 19 17 14 12 13 14 15 16 15 13 11 9 9 10 11 11 11 10 10 11 13 15 16 20 21 19 17 16 16 19 21 20 19 17 15 15 14 14 11 10 9 8 10 10 10 11 11 13 15 16 17 17 16 15 14 14 14 14 14 14 15 16 16 17 18 18 18 19 19 19 19 19 20 20 20 21 21 22 22 23 23 24 25 25 26
18 19 15 13 15 16 16 17 17 17 15 13 10 9 10 11 11 11 10 11 12 15 17 19 22 23 20 19 17 16 19 19 18 19 17 15 15 14 12 10 9 10 10 10 11 11 13 13 13 14 15 16 16 17 16 14 13 13 13 13 14 15 15 15 16 17 18 19 20 20 19 19 19 20 20 21 21 22 22 22 22 23 24 25 26 27
18 16 15 16 17 17 17 19 19 18 17 16 14 14 13 13 11 10 11 12 14 16 19 21 24 25 21 20 19 17 19 19 18 18 16 15 14 13 12 11 10 10 10 11 12 13 14 13 13 13 13 15 15 15 14 13 13 13 12 12 13 13 13 14 15 15 17 18 19 19 19 19 19 19 19 20 20 21 21 21 22 23 23 25 26 27
15 12 16 19 18 18 18 19 20 19 19 18 18 17 16 15 14 14 13 15 17 18 20 21 24 26 23 19 18 16 15 17 16 16 14 13 13 12 11 10 9 11 12 13 13 14 15 14 13 13 13 13 13 12 13 13 14 13 11 11 11 12 12 12 13 14 15 16 17 18 18 18 18 18 18 18 18 19 21 22 23 24 24 26 27 29
16 13 15 18 19 19 19 18 19 18 18 18 18 19 18 17 16 16 16 16 17 16 18 16 12 17 22 18 16 16 14 13 13 13 12 12 12 12 11 9 10 13 14 15 15 15 15 14 13 14 14 14 13 13 14 14 13 12 11 10 11 11 11 11 12 13 14 15 15 16 16 16 17 17 17 17 17 19 21 22 23 25 26 27 28 29
19 17 15 16 18 19 20 19 18 17 17 16 17 18 17 17 16 15 15 14 12 11 13 12 6 13 26 24 19 19 16 13 12 12 12 12 12 13 11 11 12 14 15 15 15 15 14 12 12 12 13 14 15 15 15 14 12 11 11 10 10 10 10 11 12 13 14 14 15 15 15 16 16 16 16 16 18 20 21 22 23 24 25 27 28 29
19 19 17 17 18 19 21 20 19 18 17 16 17 16 14 13 12 12 11 12 12 13 15 16 13 15 26 29 21 19 16 12 12 11 12 13 14 15 13 12 13 13 14 14 12 12 12 12 12 12 13 13 14 15 14 13 12 11 10 10 10 9 10 10 12 13 14 15 15 15 16 16 16 16 16 18 20 21 21 22 22 23 24 25 26 27
17 19 19 18 18 19 20 19 18 18 17 17 16 15 13 10 9 9 9 10 13 15 14 16 13 10 20 30 25 22 22 16 14 13 13 13 11 10 9 9 11 10 9 9 7 7 8 10 12 13 13 13 14 14 13 13 12 11 10 9 9 9 9 10 11 12 13 14 15 15 15 15 15 16 16 18 19 19 20 20 20 21 21 22 24 25
16 17 18 19 19 17 17 16 15 14 15 16 15 12 11 9 9 9 9 11 11 13 14 16 15 9 16 32 30 25 24 19 16 15 11 8 4 3 3 5 8 9 7 5 5 6 7 7 10 12 13 13 13 13 12 12 11 11 10 10 10 9 10 11 12 12 12 13 14 14 15 15 15 16 17 17 18 18 18 18 18 19 19 21 22 23
17 16 17 19 19 18 16 15 14 13 12 12 12 10 8 8 10 9 10 10 8 9 11 13 16 12 10 24 27 21 19 15 12 9 6 5 2 1 3 4 8 10 8 8 9 10 9 8 8 10 11 11 11 11 10 10 10 10 11 11 11 11 11 12 12 12 11 12 13 13 15 16 16 17 18 18 17 17 18 17 17 18 19 20 21 22
19 17 18 20 20 20 19 17 15 15 15 13 12 10 8 6 7 8 9 8 5 5 4 4 11 14 13 17 20 17 14 11 9 8 7 7 6 4 4 6 10 13 12 14 17 15 12 10 9 10 9 9 10 10 10 9 9 10 12 13 13 13 13 13 13 13 13 13 13 13 15 16 17 18 19 19 18 18 18 18 17 18 19 20 21 22
20 20 20 20 21 21 20 19 17 16 16 15 13 11 8 3 1 4 5 3 6 7 4 4 6 14 23 27 25 22 18 13 12 13 11 10 7 7 7 9 12 15 16 18 17 15 12 12 12 10 9 9 12 13 12 12 11 11 11 12 13 14 14 13 13 13 14 14 14 14 15 15 16 17 18 19 19 19 19 18 18 17 18 19 20 22
19 20 24 24 22 23 23 21 19 18 17 17 18 16 12 5 2 3 3 2 7 7 8 10 9 14 22 21 16 16 16 18 20 18 17 15 11 9 10 11 13 13 13 13 13 14 14 14 13 9 7 8 11 14 14 14 14 12 11 11 12 12 12 12 12 13 14 15 15 16 16 15 16 17 18 18 19 19 19 18 18 18 19 20 22 25
20 16 24 28 26 24 24 24 21 17 15 17 18 19 19 14 7 4 4 3 4 2 6 10 8 9 9 1 3 3 1 8 12 12 11 9 6 7 8 9 10 10 11 14 16 17 17 15 11 7 6 7 9 12 14 14 14 13 12 12 12 12 12 12 12 13 14 14 15 16 17 17 17 17 18 18 20 20 20 20 21 22 23 24 26 28
26 20 20 23 25 26 23 23 22 19 16 15 18 21 22 20 13 7 5 7 3 3 4 11 13 17 16 10 8 4 2 3 2 4 6 6 6 8 11 12 14 15 16 17 15 13 11 10 8 7 6 8 9 11 12 13 13 12 12 12 13 14 14 14 13 14 15 16 16 17 18 18 18 19 19 19 20 22 23 24 25 26 26 27 27 28
24 22 19 16 19 23 22 21 22 22 19 18 23 28 24 19 16 11 7 7 4 4 7 12 19 26 25 23 22 18 16 17 13 8 8 11 13 13 15 16 15 14 12 11 8 6 6 6 8 9 9 10 11 12 13 13 13 13 13 13 14 15 16 15 14 15 16 18 18 18 19 19 20 21 21 21 21 23 25 27 28 29 28 27 27 28
20 19 19 19 18 21 23 22 23 25 24 22 24 27 24 18 17 14 6 2 1 3 8 13 20 25 21 18 15 8 6 10 15 18 15 13 13 13 14 15 13 12 11 10 8 6 7 9 11 13 14 14 14 15 16 17 17 16 16 16 16 16 16 16 15 16 18 19 20 20 20 21 21 22 23 23 24 26 28 30 31 31 30 29 29 30
23 17 16 21 22 21 23 25 26 27 28 28 24 21 19 14 13 15 9 2 1 2 6 9 16 24 27 23 17 13 10 9 9 17 16 14 14 13 13 14 14 14 13 12 10 9 10 12 14 16 18 19 19 20 21 22 22 22 21 21 20 20 20 18 17 17 18 20 21 22 23 23 23 24 25 26 28 31 32 33 33 34 33 34 34 34
26 20 15 19 24 23 25 29 32 32 31 31 27 21 19 15 12 17 16 8 4 3 4 5 6 17 27 25 19 18 16 11 11 18 18 17 15 14 14 15 16 15 13 12 13 14 16 18 20 22 23 23 24 24 25 24 24 25 26 26 25 24 24 23 20 18 19 21 22 22 24 25 26 27 28 29 32 35 36 34 34 36 37 38 39 40
28 24 20 20 23 26 28 32 35 34 31 31 31 27 25 22 15 14 18 17 10 4 3 1 5 18 21 14 10 8 7 6 13 20 22 19 17 17 17 17 17 15 14 15 17 20 22 24 27 29 28 25 24 24 24 24 24 25 26 27 27 27 27 26 24 21 20 21 23 24 25 26 27 28 29 30 33 36 37 36 35 37 40 42 43 43
30 27 23 22 25 30 32 30 29 29 27 28 30 30 31 30 25 13 10 18 19 11 7 3 8 26 29 20 18 15 10 8 11 14 18 18 18 20 19 18 17 18 18 20 24 27 29 31 33 34 31 26 23 22 22 24 24 24 24 24 26 26 26 25 23 22 21 22 25 27 28 29 30 29 30 31 33 35 37 38 39 42 44 47 48 47
32 28 24 23 25 27 26 25 25 26 27 28 29 31 32 33 34 24 11 13 19 18 20 11 10 28 33 24 20 12 8 9 9 12 15 17 20 21 21 18 18 19 20 22 26 29 31 35 37 36 31 26 24 23 23 25 26 27 27 25 25 25 25 24 23 22 22 25 27 28 30 32 32 32 33 33 33 34 37 39 42 45 47 49 51 49
32 28 25 22 21 22 22 24 27 26 28 31 33 34 33 32 34 31 23 20 17 20 23 12 9 27 29 19 15 12 11 11 10 12 15 17 20 22 22 21 20 22 24 25 29 33 36 38 37 34 31 28 27 24 24 27 29 30 31 30 28 27 26 26 26 25 25 26 28 30 31 32 33 34 35 35 36 37 38 41 43 45 48 50 52 51
31 30 27 17 9 11 15 18 24 28 30 32 33 34 33 32 31 30 29 24 17 22 27 14 15 32 27 15 16 16 13 13 13 15 17 18 20 21 22 26 29 32 32 32 33 35 36 36 34 33 32 31 28 25 26 29 31 33 33 33 33 32 31 30 30 30 30 29 30 31 32 33 34 36 37 38 39 39 41 43 45 46 48 51 52 52
29 33 33 23 12 10 12 16 25 32 32 32 33 33 33 33 32 32 31 25 21 29 33 25 29 42 35 25 24 22 21 22 21 22 24 24 27 32 35 37 38 37 35 33 33 33 34 34 34 33 32 30 30 30 31 33 34 35 35 35 36 36 36 35 35 36 36 35 35 35 34 35 36 38 39 41 41 42 43 44 46 48 50 52 53 53
28 32 35 34 31 28 27 28 31 32 32 34 36 35 35 34 34 34 32 31 33 34 34 37 43 48 47 42 37 35 37 38 37 36 36 37 39 39 39 39 38 35 33 31 30 29 29 28 27 27 27 27 29 31 32 34 35 37 37 36 36 36 37 38 38 40 40 40 41 41 40 39 38 40 41 43 43 43 44 46 48 50 51 53 55 55
30 31 32 35 36 35 34 31 28 27 28 31 32 34 37 36 36 38 37 40 41 32 31 43 47 46 52 52 44 43 45 44 44 42 40 40 40 40 40 39 36 35 34 31 25 22 22 22 22 23 24 25 26 27 30 32 34 35 35 34 33 34 35 36 38 41 43 44 44 45 45 44 44 45 46 47 47 47 46 47 48 50 52 54 56 56
31 31 32 32 32 32 32 29 27 26 26 27 28 31 36 37 39 41 42 45 44 38 39 47 45 44 52 52 45 45 45 45 46 44 43 43 42 42 39 35 35 37 35 28 23 21 22 21 21 22 23 24 24 25 27 28 29 30 31 31 31 32 34 34 35 38 41 44 46 47 47 48 49 50 51 51 52 51 50 50 50 51 53 55 56 57
32 30 30 31 31 31 31 28 27 26 23 25 28 29 32 35 39 43 44 45 44 44 47 47 44 47 52 51 48 47 45 46 47 45 45 45 43 40 37 36 39 38 32 26 24 25 25 24 25 27 28 28 27 27 27 27 28 29 29 30 31 33 34 34 34 35 36 39 42 44 47 49 51 52 53 54 55 55 55 55 54 54 55 56 57 58
34 31 30 31 29 30 32 29 26 24 22 22 25 26 30 34 37 39 39 39 39 41 45 44 45 51 52 48 45 45 45 46 45 44 44 42 40 40 41 43 42 35 29 27 28 29 28 28 29 30 31 31 29 28 29 29 30 31 32 33 33 34 35 35 34 34 34 35 36 38 40 42 45 47 50 52 53 56 57 58 58 58 58 58 58 58
36 33 32 30 25 28 34 30 24 25 25 24 26 29 33 36 37 37 36 35 35 38 40 40 44 49 47 41 40 42 45 45 42 42 42 40 42 45 46 45 41 35 33 33 34 34 33 33 34 34 35 34 32 31 30 31 32 33 34 35 35 35 35 36 36 36 36 36 36 36 37 38 39 41 42 44 46 49 53 55 58 58 59 59 59 58
32 31 33 29 21 27 34 30 30 29 22 24 36 40 38 38 37 36 36 35 34 35 35 36 40 43 41 41 43 44 45 44 42 43 45 46 47 46 43 41 39 40 40 39 38 37 37 37 37 36 36 35 34 33 32 32 34 35 36 36 36 37 37 37 38 38 38 38 37 38 39 40 41 41 42 42 42 44 46 50 52 55 56 58 58 58
32 31 34 31 24 26 31 32 30 21 14 27 44 45 42 42 42 41 42 41 39 39 41 41 43 45 45 46 48 48 49 50 49 50 51 50 48 44 41 41 42 43 42 39 38 38 38 38 36 34 34 34 34 35 35 35 36 37 37 37 38 39 39 40 41 41 40 40 39 40 41 42 44 45 45 45 44 44 44 45 47 49 51 54 55 56
32 33 34 34 29 27 26 23 14 10 22 41 46 41 41 44 44 45 45 45 44 44 45 45 46 49 48 47 47 48 48 49 49 49 49 48 46 45 44 43 42 41 40 38 37 37 37 37 36 34 34 35 36 37 37 36 36 37 38 39 40 41 42 43 45 44 44 43 43 43 44 44 45 46 47 47 47 46 46 45 44 45 47 49 51 53
31 31 31 32 30 23 18 17 12 13 28 40 40 39 43 43 42 41 40 43 44 42 42 43 45 47 46 45 47 47 46 45 44 44 44 44 45 44 43 42 40 39 39 38 37 36 36 37 37 38 38 37 36 35 35 36 38 40 41 42 43 43 45 46 47 46 46 45 45 45 46 46 46 47 48 48 48 47 46 45 45 44 45 47 49 50
32 32 31 31 30 25 21 22 23 22 26 35 39 39 40 39 36 32 31 35 36 33 33 35 35 36 37 38 41 42 42 42 41 40 40 40 41 41 41 41 41 40 40 39 39 39 39 38 38 38 38 37 37 38 40 42 43 45 45 44 43 43 44 45 46 46 46 46 46 46 46 47 47 47 47 48 48 48 47 46 45 45 46 47 48 49
31 32 33 31 30 31 26 20 16 13 19 36 43 38 36 32 24 19 21 27 28 25 27 28 27 28 30 31 33 35 36 37 37 37 37 37 38 39 39 40 40 40 40 40 40 40 39 38 38 38 39 41 42 43 45 45 45 45 44 43 42 42 43 43 44 45 45 44 43 44 45 46 46 46 46 47 47 48 48 47 47 46 47 48 48 49
30 30 31 29 27 29 27 17 10 11 21 35 36 32 32 29 21 17 19 26 32 32 31 31 30 29 30 31 32 33 34 35 37 36 36 36 36 37 37 37 37 38 38 39 40 40 40 41 42 42 43 43 44 44 43 43 42 42 41 40 40 40 41 42 42 43 43 42 42 42 44 45 45 46 46 47 47 48 49 49 48 48 48 48 48 47
34 32 32 30 27 28 27 20 16 18 27 32 31 30 31 26 19 15 14 21 33 33 28 29 27 25 27 28 29 30 31 32 34 34 34 34 34 34 35 36 38 40 41 42 42 43 44 45 46 46 45 43 43 42 42 42 41 41 40 40 40 40 40 40 41 42 42 42 43 43 44 45 46 46 46 46 47 48 49 50 50 49 49 48 47 45
35 36 35 35 34 32 29 24 22 27 35 38 36 37 32 18 13 17 19 25 31 28 25 24 21 19 23 24 24 26 28 29 32 33 34 34 36 37 38 39 41 43 44 44 44 45 47 47 47 47 45 45 45 44 44 44 43 42 43 43 43 43 42 41 41 41 41 42 42 42 43 43 45 46 46 45 45 45 46 47 48 48 47 46 44 41
33 32 32 35 36 34 34 30 23 29 41 44 41 40 35 22 20 25 30 31 29 27 28 27 23 24 27 27 27 28 29 30 33 35 37 39 42 44 44 43 44 43 43 44 44 45 47 47 47 46 46 47 48 49 50 49 48 47 47 47 47 47 46 44 43 42 42 42 41 41 41 42 43 45 45 45 44 43 43 43 44 44 44 43 41 39
32 28 28 34 36 32 30 24 17 24 41 46 43 41 38 33 32 34 34 32 31 33 34 34 33 34 34 34 35 35 35 36 37 39 41 42 43 45 44 43 43 43 44 44 45 46 47 49 50 50 50 50 51 52 54 54 55 54 53 53 52 52 51 50 48 46 45 44 44 43 42 42 43 44 45 45 44 43 42 42 42 42 43 42 42 41
31 30 30 35 36 30 27 26 26 33 43 44 42 40 36 32 32 31 29 30 31 32 33 34 34 34 34 35 35 35 36 37 37 38 40 39 40 41 42 42 42 44 45 46 48 49 51 53 54 55 55 54 54 54 55 56 57 57 57 57 57 57 56 55 54 53 52 50 49 47 45 44 43 44 46 47 47 45 44 43 42 42 43 44 44 44
32 35 34 35 36 33 32 34 36 37 37 37 38 38 32 27 26 25 24 25 26 27 29 30 31 32 33 33 33 33 35 36 36 38 38 38 40 41 42 44 45 46 48 50 51 53 54 56 57 58 58 58 56 55 56 57 57 58 58 57 57 58 58 58 57 56 55 54 53 51 50 48 45 44 44 46 48 48 46 45 44 43 44 45 46 46
31 32 32 32 32 31 32 34 34 32 32 33 34 35 30 24 22 23 23 24 25 27 28 29 30 31 31 31 32 33 34 36 38 39 40 42 43 44 46 48 49 50 52 53 54 54 55 57 58 58 59 58 56 54 54 56 56 57 58 57 57 57 57 57 57 56 55 54 53 52 51 50 48 45 44 44 46 48 48 46 45 44 45 47 48 48
32 29 28 28 27 27 28 31 32 31 32 32 32 33 32 27 24 24 25 26 26 27 28 30 31 32 32 34 36 37 39 41 43 44 46 47 48 49 51 52 53 54 54 54 55 55 55 56 57 57 57 57 55 53 53 53 54 54 55 56 56 56 56 56 56 55 54 53 52 51 50 50 49 47 45 44 45 46 46 46 45 45 46 47 48 49
35 33 31 29 29 29 29 29 28 28 30 31 31 31 31 29 27 26 27 28 29 30 31 32 33 35 36 38 39 41 43 45 47 49 51 51 52 52 52 53 54 54 53 52 52 53 54 55 55 56 56 56 54 52 52 52 52 52 52 53 54 54 54 54 54 54 54 53 52 50 49 49 50 48 47 45 45 44 43 44 45 45 46 46 47 48
35 35 35 34 34 35 34 32 31 31 30 31 33 34 34 34 32 30 29 31 32 33 33 33 34 35 37 39 40 43 45 46 47 49 50 51 51 51 51 51 52 51 51 51 50 51 52 53 54 55 55 54 53 52 51 51 50 49 49 50 50 51 51 52 53 53 53 52 52 50 49 49 49 48 46 45 43 42 41 42 43 45 46 46 46 46
37 37 38 38 38 39 39 38 38 37 35 33 34 35 36 36 36 34 32 32 32 33 33 33 34 36 37 39 41 42 44 46 47 48 49 49 49 49 50 51 51 51 51 51 51 51 52 53 53 54 55 54 53 53 52 51 50 49 48 48 47 47 48 49 50 51 51 51 51 50 48 48 48 47 44 42 40 39 39 41 42 44 45 46 45 43
42 41 40 40 40 40 39 37 37 37 37 36 35 34 35 36 36 35 35 34 34 35 36 37 38 38 39 41 42 43 45 46 46 47 48 49 49 49 50 51 52 53 53 52 53 53 54 54 54 54 54 54 53 53 53 52 52 52 51 49 48 48 47 47 47 48 48 49 49 48 46 45 44 42 40 37 37 38 40 42 43 44 44 43 42 40
Wind_Direction
206 205 206 210 215 219 219 215 209 206 196 195 201 206 212 216 225 233 238 246 255 259 261 262 265 261 252 245 244 247 254 261 267 272 272 271 269 265 263 263 267 268 259 253 252 252 257 259 258 260 262 264 268 273 277 282 286 286 286 285 283 278 274 275 277 278 278 280 282 282 283 284 283 281 278 278 278 278 278 278 278 280 281 283 285 286
209 211 211 213 216 216 215 208 204 203 197 194 197 205 214 219 225 230 234 242 253 262 265 269 270 266 262 260 254 251 253 257 265 270 271 267 261 258 256 256 259 259 255 256 260 263 265 265 262 260 259 262 266 270 274 278 281 284 286 289 287 281 279 280 280 279 279 281 282 281 281 280 278 278 278 278 277 276 276 276 279 281 282 284 285 286
209 214 210 205 206 205 205 204 203 205 204 202 199 203 214 220 225 228 235 245 255 267 272 277 277 269 266 268 263 258 258 259 262 262 262 260 256 254 253 252 250 250 253 260 267 269 268 267 265 263 261 262 263 264 269 274 279 285 288 289 285 282 283 282 280 281 282 282 281 281 281 279 278 277 277 278 277 278 279 281 282 283 284 285 285 285
210 214 206 204 206 203 202 204 205 207 210 211 209 211 217 224 231 237 245 252 260 272 277 283 284 273 266 269 265 262 261 263 265 263 261 260 256 252 249 250 253 258 262 263 266 268 271 271 270 268 263 260 260 262 266 270 275 283 286 283 279 278 281 281 282 284 283 281 280 281 281 279 278 277 277 277 278 281 283 283 283 282 282 281 280 280
218 213 206 207 207 203 202 202 205 211 216 220 221 222 227 233 240 248 254 260 267 275 278 285 290 280 274 275 271 265 259 262 267 266 266 261 256 250 246 252 261 262 262 263 267 270 273 276 274 270 266 263 263 262 261 264 272 282 282 276 271 272 276 279 281 281 279 279 279 279 279 279 279 278 277 277 279 281 280 279 278 277 276 274 274 276
217 211 207 208 208 206 202 201 205 211 218 226 229 231 236 242 249 255 258 265 272 276 278 287 299 284 277 276 274 272 263 262 267 269 271 266 260 254 247 253 261 259 261 265 269 271 276 280 277 272 268 265 262 258 258 264 275 281 276 269 266 268 272 276 278 278 277 277 276 277 278 279 278 277 278 279 278 275 273 273 274 274 274 274 275 276
213 209 205 204 208 210 205 204 207 211 219 227 232 235 240 248 253 257 259 263 270 272 277 284 290 283 281 277 273 274 271 266 266 271 276 273 267 263 260 262 262 260 264 268 268 267 268 270 269 266 263 260 258 257 261 268 275 276 271 266 265 267 271 276 277 278 277 276 274 274 274 274 276 278 280 278 274 272 272 273 274 275 276 277 277 277
212 207 205 201 205 211 210 209 211 215 221 229 235 240 245 251 251 251 255 256 264 272 277 278 273 278 282 279 277 278 277 272 266 266 272 276 277 278 277 274 270 268 265 265 267 265 258 255 255 255 256 256 255 257 262 267 270 271 270 265 264 268 272 275 277 278 278 277 275 273 273 275 277 280 279 275 275 276 278 280 281 282 282 282 282 281
215 210 208 206 205 210 213 213 216 220 226 232 238 243 244 242 239 241 247 252 267 278 275 270 265 262 273 275 279 283 282 283 283 279 278 281 283 282 281 273 262 252 246 250 261 272 270 264 263 260 257 256 255 259 264 264 265 269 269 262 261 268 274 277 278 276 275 276 276 277 277 279 279 278 276 275 278 281 283 285 287 287 286 286 285 285
217 211 208 209 209 211 213 212 215 218 225 230 233 237 234 229 235 241 248 259 274 275 266 266 262 250 271 275 275 279 282 286 294 294 288 283 278 268 269 254 235 216 212 238 264 284 290 285 281 274 263 258 260 264 264 261 262 268 268 261 260 267 276 283 283 279 275 273 275 277 279 280 279 277 277 277 279 281 282 284 286 287 287 287 288 288
218 213 209 209 210 213 214 211 212 215 221 225 224 225 224 227 241 249 254 263 279 274 264 264 256 242 268 279 276 278 284 291 297 293 268 246 232 255 269 243 227 219 229 263 282 289 285 281 296 296 277 262 258 258 255 257 266 273 273 268 266 270 276 280 283 283 280 278 277 277 278 278 278 278 278 279 280 280 281 283 284 285 286 288 289 290
215 212 211 211 213 215 217 217 219 223 225 225 222 217 217 231 251 256 257 251 247 264 255 241 248 235 234 261 272 278 286 291 282 263 257 262 249 220 222 232 236 241 257 277 289 292 280 273 296 310 296 268 250 244 246 262 281 284 279 273 268 269 271 273 277 281 283 286 286 282 281 280 278 278 278 279 280 280 282 284 284 286 290 293 295 296
211 213 215 214 217 218 218 218 216 219 222 222 220 211 206 217 282 256 255 228 233 249 236 223 247 242 248 263 272 274 276 273 261 255 263 268 244 211 214 235 248 256 265 274 282 287 282 282 297 306 292 262 246 246 256 273 287 290 285 276 267 265 267 266 268 274 280 286 289 290 288 285 281 280 279 279 279 279 280 282 285 291 296 300 302 303
204 214 217 215 216 217 219 217 211 212 216 220 221 212 203 176 102 253 262 290 266 254 228 233 251 260 266 277 284 275 260 246 243 250 260 263 252 243 247 256 263 266 268 272 278 287 293 297 301 301 282 261 254 258 270 283 290 293 289 276 263 260 263 263 264 269 276 282 287 291 292 291 288 284 282 281 280 278 278 280 285 292 298 302 304 304
204 214 221 218 219 221 223 225 225 228 232 233 231 225 221 212 194 215 220 218 263 256 208 216 229 255 261 245 63 34 216 228 232 234 245 251 246 250 258 263 266 267 272 279 285 290 294 298 302 300 290 283 278 279 284 291 293 294 291 279 267 262 263 265 267 270 275 279 282 286 291 295 293 288 285 285 284 282 280 282 287 293 298 300 301 301
210 221 226 223 225 228 229 230 231 231 231 231 225 222 226 227 226 240 245 234 263 347 235 219 229 249 251 239 234 234 248 269 215 173 203 229 255 267 265 266 269 271 276 281 284 287 291 296 301 304 304 301 301 300 299 299 297 294 288 280 271 268 270 272 272 272 276 279 281 283 289 294 295 291 288 286 285 286 286 287 290 294 296 298 299 300
210 221 227 223 224 226 225 227 227 224 222 219 217 218 222 226 228 236 254 256 266 292 260 237 243 255 262 267 265 258 259 260 248 243 259 260 264 263 256 261 269 269 267 263 264 283 305 312 309 305 304 302 302 305 304 303 302 297 288 279 273 272 276 277 274 275 278 279 281 283 286 290 292 291 290 289 288 289 289 290 291 294 295 298 299 300
216 221 225 223 219 218 217 218 221 224 224 219 217 221 223 224 226 225 238 291 244 269 265 247 251 261 264 267 269 248 247 264 246 239 248 261 271 267 255 257 258 249 242 241 252 282 313 326 324 313 307 302 298 299 300 298 294 290 286 280 276 276 280 282 278 277 278 279 279 280 281 284 287 288 289 291 293 292 292 293 293 295 298 300 301 301
225 222 221 220 218 214 211 211 214 218 221 222 224 223 217 216 214 208 210 244 188 236 280 260 258 265 260 253 255 248 259 287 238 214 229 260 272 263 251 245 238 232 232 236 252 276 295 313 324 319 308 298 293 292 294 294 288 283 281 279 279 281 283 284 282 277 274 274 276 276 276 279 283 287 288 290 291 291 292 295 297 301 306 307 307 307
225 224 220 214 213 211 209 210 212 213 214 218 224 222 219 219 210 205 209 216 200 194 261 285 276 267 264 264 268 269 272 269 210 209 240 264 257 241 236 234 230 232 241 253 274 289 294 302 314 318 310 299 293 290 289 286 280 275 275 277 278 281 282 284 285 279 270 267 271 274 275 278 282 286 287 287 286 287 289 294 299 304 307 308 309 308
222 222 222 215 208 207 211 214 216 217 216 218 220 218 218 216 207 209 218 221 220 195 200 276 279 265 267 274 275 280 295 253 207 218 240 248 242 236 234 233 231 237 256 274 286 294 298 304 312 315 311 304 301 297 291 284 277 272 273 276 278 279 281 283 285 281 272 266 268 271 275 280 284 287 288 287 285 283 285 289 294 298 301 302 304 304
218 219 220 215 209 211 217 221 223 226 228 230 230 228 227 221 210 204 215 221 223 227 227 210 280 272 268 271 276 282 282 248 210 215 227 225 222 222 220 226 233 241 260 280 291 298 302 305 307 306 304 303 304 304 299 291 285 281 279 279 279 279 279 280 281 280 276 271 270 271 274 278 281 285 288 288 286 284 283 285 288 291 293 296 298 300
217 218 220 221 222 224 224 224 225 226 229 233 236 237 235 227 218 211 208 220 217 228 242 239 271 273 269 272 278 269 226 213 209 217 218 210 212 216 218 228 238 247 263 280 290 295 294 292 294 296 297 299 300 299 296 291 287 284 280 277 276 278 278 276 274 273 272 272 273 274 275 276 277 281 284 286 286 286 285 283 284 286 288 290 292 295
214 218 219 219 226 227 223 225 227 226 226 228 229 232 231 228 226 223 226 235 225 225 234 229 253 264 265 267 260 232 213 224 225 220 215 211 214 215 217 228 241 253 263 271 277 281 283 286 290 294 294 294 293 291 288 284 280 277 275 274 274 275 277 275 271 267 265 267 270 274 276 277 278 280 283 285 284 284 284 284 283 284 285 286 288 291
210 213 213 206 208 225 221 222 224 223 223 227 229 230 231 231 230 226 229 234 235 236 233 218 241 255 256 254 244 233 230 231 221 220 221 219 224 232 245 261 272 278 282 285 287 288 291 293 295 294 292 290 286 280 277 276 276 274 274 273 271 271 271 270 268 267 265 264 264 268 272 276 279 281 282 283 282 282 283 284 284 285 285 286 288 290
211 212 213 206 192 202 213 217 221 221 221 226 230 231 232 233 230 228 229 226 231 241 236 225 240 252 254 253 250 250 253 254 253 252 252 255 264 273 280 285 290 294 297 300 301 299 296 295 293 290 288 285 279 275 273 273 275 276 275 274 272 271 270 269 267 267 266 265 264 265 267 271 275 279 281 281 281 282 283 283 284 285 286 286 288 290
214 216 218 219 219 224 231 232 232 230 225 227 232 232 232 233 232 231 228 225 231 239 238 237 246 255 258 257 257 260 265 270 273 273 274 277 280 283 287 291 296 299 302 304 302 297 292 288 283 278 275 274 272 273 273 273 275 278 279 280 281 280 279 276 273 271 268 265 264 264 264 264 267 271 274 276 277 277 279 280 281 283 285 286 287 288
214 216 219 225 229 235 239 239 238 237 233 233 236 236 235 234 233 231 228 232 236 236 242 247 249 253 260 262 262 265 270 274 276 277 280 281 282 285 289 294 297 299 303 303 297 288 280 272 267 265 265 265 267 270 273 276 280 283 286 289 289 287 285 282 278 275 270 267 266 264 263 262 261 263 265 268 269 271 273 276 278 280 282 283 284 286
214 217 220 223 227 232 236 239 240 239 237 236 235 235 235 234 234 233 234 239 238 233 242 251 250 251 260 265 266 267 270 273 275 277 280 282 285 288 291 294 296 298 300 294 283 278 274 268 269 275 278 279 280 281 283 284 285 286 288 289 289 289 288 286 283 279 274 272 271 269 267 266 266 266 267 268 269 270 271 273 275 276 278 280 281 283
214 217 221 223 226 229 231 234 236 234 228 225 224 226 229 231 233 236 239 241 239 238 244 250 252 254 259 263 265 268 270 273 276 279 281 284 288 290 291 291 293 295 293 284 278 281 280 277 281 287 291 294 295 294 294 293 289 285 283 283 285 286 287 287 286 284 281 277 275 274 272 272 272 273 274 274 274 274 275 274 274 274 275 276 278 280
214 218 219 221 224 225 226 226 227 222 216 214 214 217 222 227 230 233 237 238 238 240 245 248 251 256 259 262 268 273 274 275 280 283 283 285 287 289 292 293 292 290 287 284 285 287 285 283 284 288 293 296 297 296 295 293 289 284 281 281 282 283 283 285 286 285 285 283 280 278 277 276 275 275 276 276 276 276 276 275 274 273 273 274 276 278
212 216 218 220 227 230 224 219 224 234 238 237 228 219 218 223 227 228 232 237 238 242 247 250 252 256 263 269 273 276 276 276 280 282 281 284 287 289 292 292 289 286 286 287 288 287 286 284 285 288 291 293 294 294 291 288 286 283 280 279 280 281 281 282 283 283 284 284 283 282 281 281 280 280 280 280 279 277 275 274 274 273 274 274 276 277
218 219 221 223 235 241 232 230 242 250 254 251 241 233 227 226 229 232 236 238 239 243 249 251 253 259 268 273 273 275 277 277 277 277 279 283 287 289 288 287 286 287 289 290 289 289 289 289 289 290 290 290 291 291 289 286 285 283 280 278 278 278 279 279 279 280 281 281 282 282 283 283 283 284 285 286 285 282 278 276 275 276 276 276 277 278
234 234 237 238 244 250 246 249 253 248 243 250 250 248 245 242 240 242 244 243 242 248 254 256 259 263 267 268 271 275 277 276 275 276 279 282 284 284 283 284 286 289 291 291 291 291 292 292 292 291 289 289 289 289 289 286 284 282 281 281 280 280 280 280 280 280 281 282 282 282 282 282 282 284 285 286 287 286 284 281 278 278 279 279 279 279
237 238 241 240 241 245 244 241 238 227 242 252 257 257 256 254 250 250 251 251 250 254 258 259 260 261 263 265 268 271 273 273 274 276 277 278 279 281 283 285 286 288 291 292 291 291 291 291 291 290 289 290 291 290 289 287 284 283 283 284 285 285 286 285 284 284 285 285 285 284 283 282 281 282 284 286 286 286 286 285 281 279 279 279 280 280
233 232 231 228 227 230 220 205 209 244 252 255 259 258 255 254 252 252 254 256 256 257 259 260 260 261 262 263 264 266 268 270 271 271 273 275 277 280 283 285 286 288 289 290 290 290 290 290 291 291 292 293 292 289 288 287 287 287 289 290 291 290 289 288 287 287 287 286 285 284 282 282 281 282 284 285 286 285 285 284 281 279 277 277 277 278
231 229 227 223 221 222 215 214 231 249 256 256 256 255 255 255 255 256 259 261 260 259 258 258 259 259 259 259 260 262 265 267 269 270 272 274 276 279 282 284 285 287 287 288 290 291 292 292 293 294 294 294 293 292 292 293 294 295 295 296 295 293 292 290 289 288 287 286 284 283 282 282 281 281 282 283 284 285 284 282 280 278 277 277 277 277
231 229 228 223 219 221 222 225 232 237 249 253 253 254 257 258 257 257 258 259 258 255 253 254 253 253 254 256 259 262 264 268 270 271 272 274 275 277 278 280 282 284 285 287 289 289 290 291 292 293 294 295 296 298 299 300 300 301 301 300 299 297 295 293 291 288 287 286 285 284 282 280 279 279 279 279 280 281 281 280 279 279 278 278 277 276
231 231 231 226 219 220 221 221 219 218 239 249 253 256 258 259 261 258 255 258 260 260 259 259 257 257 258 260 262 264 266 268 269 270 271 272 272 273 275 276 278 281 284 286 287 288 289 289 291 293 295 296 298 300 300 300 300 301 301 301 301 300 299 297 295 291 289 289 288 287 285 282 279 278 277 277 277 278 278 278 278 278 278 278 277 276
230 232 233 230 228 228 228 231 236 237 242 247 252 256 260 263 261 245 237 256 264 266 266 263 260 260 261 260 262 264 266 268 269 270 271 270 270 272 274 277 279 282 283 285 286 287 288 290 292 295 297 299 300 300 301 300 300 300 300 301 303 303 304 303 300 297 294 292 291 291 289 286 282 280 278 278 278 277 277 277 277 277 277 277 276 275
225 229 231 232 233 234 234 236 242 246 247 249 254 259 261 255 220 212 233 259 266 268 269 266 263 263 261 258 259 261 262 264 267 269 270 271 273 274 276 278 280 282 283 284 285 287 289 291 295 297 299 301 302 301 301 300 300 301 302 303 304 305 306 306 305 302 299 296 294 293 293 290 286 282 280 280 280 280 279 278 278 278 278 277 275 273
217 221 226 230 232 234 237 238 245 252 253 252 255 258 256 240 219 231 250 260 262 263 266 267 266 266 265 264 262 260 259 260 262 265 268 271 273 275 276 277 278 279 281 282 284 287 289 290 292 294 296 298 300 300 300 300 300 301 302 303 304 305 305 305 305 305 304 301 299 296 294 292 289 284 282 281 282 281 280 279 279 278 278 276 272 270
224 218 217 225 230 230 232 232 236 250 253 253 255 256 254 248 246 251 256 258 259 262 264 265 264 263 263 263 263 262 261 261 262 264 267 269 272 274 276 278 280 282 283 284 285 287 288 289 291 293 295 297 298 299 299 299 299 299 300 301 302 303 303 303 303 304 304 304 303 301 298 295 290 286 283 281 282 282 281 280 279 278 276 272 270 270
233 224 219 227 229 222 217 223 235 247 253 256 257 257 257 257 260 262 260 258 259 261 260 260 261 261 261 260 261 262 263 264 265 266 268 269 272 274 276 279 282 283 285 287 289 291 292 292 292 294 297 299 301 301 300 300 299 299 299 300 300 300 300 301 301 301 301 301 301 302 302 300 296 291 286 283 282 281 280 279 277 276 273 270 268 269
234 236 235 237 239 235 233 238 246 252 255 259 261 262 262 262 262 260 257 255 255 255 255 255 255 257 258 259 259 261 263 265 267 270 273 274 275 277 279 281 283 286 288 291 293 295 296 296 296 297 298 300 303 304 303 303 302 301 301 301 301 300 300 300 299 299 298 298 298 299 300 300 300 298 293 288 285 282 280 278 276 274 272 269 267 268
235 239 240 241 244 247 248 249 251 254 256 258 260 262 263 259 252 248 248 248 247 246 247 248 249 253 257 260 262 264 267 270 271 273 277 279 281 284 286 288 289 291 293 294 296 297 298 298 298 299 299 300 303 305 304 304 304 303 303 302 301 301 300 299 299 298 296 295 295 296 297 298 299 299 297 294 289 284 281 279 277 276 273 271 269 269
234 235 235 235 236 240 244 247 249 249 251 252 254 257 258 253 246 242 243 244 243 243 245 249 255 260 264 267 269 270 272 275 278 278 280 282 284 287 289 290 292 292 293 295 296 297 298 298 298 299 300 301 303 304 304 304 304 304 303 303 301 300 299 298 297 296 295 294 292 293 294 295 295 296 296 295 291 286 282 280 279 277 275 273 272 271
234 234 232 229 230 234 240 245 247 245 244 245 246 249 251 251 250 250 252 253 254 256 258 260 263 267 270 271 273 273 275 278 281 282 283 284 286 288 289 290 291 292 293 294 295 296 297 297 298 299 299 300 302 302 302 303 303 303 303 302 301 300 298 297 295 294 293 292 291 290 291 291 291 291 292 292 291 287 282 280 279 278 275 274 273 273
237 238 237 236 236 237 238 240 242 242 243 244 245 248 250 253 255 257 258 259 261 263 264 266 268 271 273 275 277 278 279 281 283 284 285 286 288 289 290 291 292 292 293 294 295 296 296 296 296 297 297 298 299 300 299 299 300 301 301 301 301 301 299 297 296 294 293 292 290 289 289 289 287 286 287 288 288 287 284 282 282 280 277 275 273 270
241 242 244 245 244 243 242 243 243 245 246 246 246 247 249 252 254 255 256 258 261 263 265 269 273 276 278 280 282 283 283 284 284 286 287 287 289 290 291 292 293 293 294 295 296 296 296 296 296 295 295 296 296 296 296 295 296 297 299 300 300 301 301 300 298 297 295 294 292 291 290 289 286 283 282 283 284 285 285 284 282 279 276 273 270 268
246 247 249 250 250 251 251 250 247 245 245 244 243 245 247 249 251 253 256 259 262 265 269 271 273 276 279 281 282 284 284 285 286 286 286 287 289 290 291 292 292 293 294 294 295 295 295 295 295 295 295 295 295 293 292 291 291 292 294 296 297 299 300 302 302 300 298 296 294 293 293 291 287 284 283 284 284 284 282 280 278 275 272 270 267 265
Height
3152 3153 3153 3154 3156 3158 3160 3162 3163 3163 3164 3164 3165 3166 3166 3167 3167 3168 3169 3169 3169 3169 3169 3169 3168 3168 3169 3171 3172 3173 3171 3169 3170 3171 3171 3172 3172 3172 3173 3173 3174 3175 3175 3176 3176 3176 3176 3176 3177 3176 3176 3176 3176 3177 3178 3178 3178 3178 3178 3179 3179 3179 3179 3178 3178 3179 3179 3179 3179 3180 3179 3179 3179 3179 3179 3179 3179 3179 3179 3179 3178 3178 3178 3178 3178 3177
3151 3151 3152 3155 3157 3158 3159 3161 3161 3162 3163 3164 3164 3165 3166 3166 3167 3167 3168 3168 3168 3168 3168 3168 3166 3165 3167 3168 3169 3170 3169 3168 3169 3169 3169 3170 3170 3170 3170 3171 3172 3172 3173 3174 3174 3174 3174 3175 3174 3174 3174 3174 3175 3175 3175 3176 3176 3176 3176 3176 3176 3176 3176 3176 3176 3176 3176 3177 3177 3177 3177 3177 3177 3177 3176 3176 3176 3176 3176 3176 3176 3176 3175 3175 3175 3175
3149 3150 3152 3154 3155 3156 3158 3159 3160 3161 3162 3163 3163 3164 3165 3166 3166 3167 3167 3167 3167 3167 3166 3166 3164 3162 3164 3166 3166 3167 3166 3166 3167 3167 3167 3168 3168 3169 3169 3170 3170 3170 3171 3172 3172 3172 3172 3172 3172 3172 3172 3172 3173 3173 3173 3174 3174 3174 3174 3174 3174 3173 3173 3174 3173 3173 3174 3174 3174 3174 3174 3174 3174 3174 3174 3174 3174 3173 3174 3174 3174 3174 3173 3173 3172 3172
3148 3150 3152 3152 3153 3155 3157 3158 3159 3160 3161 3162 3162 3163 3164 3165 3165 3166 3166 3166 3166 3166 3165 3165 3162 3159 3161 3163 3163 3165 3164 3164 3165 3164 3165 3166 3166 3167 3168 3168 3168 3169 3169 3169 3169 3169 3169 3170 3170 3170 3170 3170 3170 3171 3171 3171 3171 3171 3172 3171 3171 3171 3171 3171 3171 3171 3171 3171 3171 3171 3171 3171 3171 3171 3171 3171 3171 3171 3171 3171 3171 3171 3171 3170 3169 3169
3147 3149 3150 3150 3152 3154 3155 3157 3158 3159 3160 3161 3161 3162 3163 3164 3165 3165 3166 3165 3165 3165 3164 3163 3161 3157 3157 3160 3160 3162 3162 3162 3162 3163 3163 3164 3164 3165 3166 3166 3167 3167 3167 3167 3167 3167 3167 3167 3167 3167 3168 3168 3168 3169 3169 3169 3169 3169 3169 3169 3169 3169 3168 3168 3168 3168 3168 3168 3168 3168 3168 3168 3168 3168 3168 3168 3169 3169 3168 3168 3168 3167 3167 3167 3166 3165
3146 3148 3148 3149 3151 3152 3154 3155 3157 3158 3159 3160 3160 3161 3162 3163 3163 3164 3165 3165 3164 3163 3163 3163 3162 3156 3154 3157 3158 3158 3160 3161 3161 3161 3162 3162 3162 3163 3164 3165 3165 3164 3164 3165 3165 3165 3165 3165 3165 3165 3165 3166 3166 3167 3167 3167 3167 3167 3167 3167 3167 3166 3166 3166 3166 3166 3166 3166 3166 3165 3165 3165 3165 3165 3165 3165 3166 3165 3165 3165 3164 3164 3163 3163 3163 3162
3144 3146 3147 3149 3150 3151 3153 3154 3155 3157 3158 3159 3159 3160 3161 3161 3162 3163 3163 3163 3163 3162 3161 3162 3163 3157 3151 3152 3156 3156 3157 3159 3159 3160 3160 3160 3161 3161 3162 3163 3163 3162 3162 3162 3163 3163 3163 3163 3163 3163 3163 3163 3164 3164 3164 3165 3165 3165 3165 3164 3164 3164 3164 3164 3164 3164 3164 3164 3164 3163 3163 3163 3162 3162 3163 3163 3162 3162 3162 3161 3161 3161 3160 3160 3159 3159
3142 3144 3146 3147 3149 3150 3151 3153 3154 3155 3157 3157 3158 3159 3160 3160 3161 3162 3162 3162 3161 3160 3160 3160 3162 3159 3150 3147 3152 3153 3155 3157 3158 3158 3158 3159 3159 3159 3160 3160 3160 3160 3160 3160 3160 3160 3160 3160 3160 3161 3161 3161 3161 3162 3162 3163 3163 3163 3163 3162 3162 3162 3162 3162 3162 3162 3162 3162 3161 3161 3161 3161 3160 3160 3160 3160 3159 3158 3158 3158 3158 3158 3157 3157 3156 3156
3141 3143 3144 3146 3147 3148 3150 3152 3153 3155 3156 3156 3157 3158 3158 3159 3160 3160 3161 3161 3160 3159 3158 3157 3160 3160 3150 3145 3149 3151 3151 3154 3155 3156 3156 3157 3157 3157 3157 3158 3158 3158 3158 3157 3157 3157 3157 3158 3158 3158 3159 3159 3159 3160 3160 3160 3160 3161 3161 3161 3161 3161 3161 3160 3160 3160 3159 3159 3159 3159 3158 3158 3158 3158 3157 3157 3156 3156 3155 3155 3155 3155 3154 3154 3153 3152
3140 3141 3143 3144 3146 3147 3149 3151 3152 3154 3155 3155 3156 3157 3157 3158 3158 3159 3160 3159 3160 3157 3155 3156 3158 3157 3149 3142 3146 3149 3149 3152 3152 3153 3154 3154 3155 3155 3155 3156 3155 3155 3155 3155 3155 3155 3156 3156 3156 3156 3156 3157 3157 3158 3158 3158 3158 3159 3159 3159 3159 3159 3159 3158 3158 3158 3157 3157 3156 3156 3156 3156 3156 3155 3155 3154 3154 3153 3153 3153 3152 3152 3151 3151 3150 3149
3138 3140 3142 3143 3145 3146 3148 3150 3151 3153 3154 3154 3155 3156 3157 3158 3158 3159 3158 3158 3159 3155 3152 3154 3155 3156 3149 3140 3142 3146 3147 3150 3150 3151 3152 3152 3153 3154 3154 3154 3154 3154 3153 3153 3153 3154 3154 3154 3154 3154 3154 3155 3155 3155 3156 3156 3156 3157 3157 3157 3157 3157 3157 3156 3156 3155 3155 3155 3154 3154 3153 3153 3153 3153 3152 3152 3151 3151 3150 3150 3150 3149 3148 3148 3147 3147
3137 3138 3140 3141 3143 3144 3146 3148 3150 3151 3152 3153 3154 3155 3157 3157 3157 3157 3156 3157 3157 3152 3151 3152 3152 3154 3147 3138 3140 3144 3146 3148 3148 3149 3150 3150 3151 3152 3152 3153 3152 3152 3151 3151 3151 3151 3152 3152 3152 3152 3152 3152 3153 3153 3153 3153 3153 3154 3154 3154 3155 3154 3154 3153 3153 3153 3153 3152 3152 3151 3151 3151 3151 3150 3150 3149 3149 3148 3148 3147 3147 3146 3146 3145 3144 3143
3135 3136 3138 3139 3141 3142 3144 3146 3148 3149 3150 3152 3153 3155 3156 3157 3157 3156 3155 3156 3154 3150 3150 3151 3152 3149 3139 3135 3139 3142 3144 3146 3146 3146 3147 3148 3149 3150 3150 3151 3150 3150 3149 3149 3149 3149 3149 3150 3150 3150 3150 3150 3150 3150 3150 3150 3150 3151 3151 3151 3152 3152 3151 3151 3151 3150 3150 3150 3149 3149 3149 3148 3148 3148 3147 3147 3147 3146 3145 3145 3144 3143 3143 3142 3141 3140
3133 3135 3135 3136 3138 3139 3141 3143 3145 3147 3149 3150 3151 3152 3153 3155 3157 3155 3155 3155 3151 3148 3148 3150 3151 3144 3134 3135 3137 3138 3140 3142 3142 3143 3145 3146 3148 3148 3148 3148 3148 3148 3148 3148 3148 3147 3147 3147 3147 3148 3148 3148 3148 3148 3148 3148 3148 3148 3148 3148 3149 3149 3148 3148 3148 3148 3147 3147 3147 3146 3146 3146 3145 3145 3144 3144 3144 3143 3142 3142 3141 3140 3140 3139 3139 3137
3129 3130 3130 3132 3135 3137 3139 3141 3143 3145 3147 3147 3148 3149 3149 3149 3151 3151 3152 3151 3147 3147 3147 3149 3148 3139 3133 3135 3135 3135 3138 3139 3140 3142 3143 3145 3146 3146 3146 3146 3146 3146 3146 3146 3146 3146 3145 3145 3145 3145 3146 3146 3146 3146 3145 3145 3145 3145 3146 3146 3146 3146 3145 3145 3145 3145 3144 3144 3144 3144 3143 3143 3142 3142 3141 3141 3141 3140 3140 3139 3138 3137 3137 3136 3135 3134
3126 3126 3127 3130 3133 3135 3137 3139 3141 3143 3145 3145 3146 3146 3145 3146 3147 3147 3148 3147 3147 3148 3146 3144 3140 3132 3131 3134 3135 3136 3138 3139 3141 3141 3142 3143 3144 3144 3144 3144 3144 3144 3145 3145 3144 3144 3144 3144 3144 3143 3143 3143 3143 3143 3143 3143 3143 3143 3144 3144 3144 3143 3143 3142 3142 3141 3141 3141 3141 3140 3140 3140 3139 3139 3138 3138 3138 3137 3137 3136 3135 3134 3133 3132 3131 3130
3123 3124 3126 3129 3130 3132 3135 3137 3139 3140 3141 3142 3142 3141 3142 3144 3145 3147 3147 3146 3148 3147 3141 3137 3133 3129 3131 3131 3131 3135 3137 3139 3141 3140 3140 3141 3141 3142 3142 3141 3142 3142 3143 3142 3142 3142 3142 3142 3142 3142 3142 3142 3141 3142 3142 3142 3142 3142 3142 3141 3141 3141 3140 3139 3139 3138 3138 3138 3138 3137 3137 3136 3136 3135 3135 3135 3135 3134 3133 3132 3131 3130 3129 3128 3127 3126
3120 3122 3124 3126 3128 3130 3132 3134 3135 3136 3137 3138 3137 3138 3140 3143 3144 3145 3146 3146 3148 3146 3138 3131 3129 3128 3130 3129 3128 3131 3133 3136 3138 3138 3139 3139 3138 3139 3139 3139 3140 3140 3140 3140 3140 3140 3140 3140 3141 3141 3140 3140 3140 3140 3140 3140 3140 3140 3140 3139 3139 3138 3137 3136 3136 3136 3135 3135 3134 3134 3133 3133 3133 3132 3132 3131 3131 3130 3129 3128 3127 3125 3124 3124 3123 3122
3118 3120 3121 3123 3125 3127 3129 3130 3131 3132 3133 3134 3134 3136 3139 3140 3141 3142 3144 3143 3145 3145 3137 3128 3126 3125 3124 3125 3127 3128 3131 3134 3136 3136 3137 3136 3136 3136 3136 3137 3138 3137 3137 3137 3137 3137 3137 3138 3139 3139 3139 3138 3138 3138 3138 3138 3138 3137 3137 3136 3136 3135 3134 3133 3133 3133 3132 3132 3131 3130 3130 3129 3129 3129 3128 3127 3126 3125 3124 3123 3122 3120 3119 3118 3117 3117
3116 3118 3119 3120 3122 3124 3125 3125 3125 3125 3128 3131 3132 3135 3136 3137 3137 3138 3140 3139 3139 3141 3137 3129 3125 3119 3117 3121 3124 3126 3128 3132 3134 3133 3133 3134 3134 3134 3134 3135 3135 3135 3135 3134 3134 3135 3134 3135 3136 3137 3137 3136 3136 3136 3135 3135 3135 3134 3133 3132 3132 3131 3130 3130 3130 3129 3129 3129 3128 3127 3127 3126 3125 3125 3124 3123 3122 3121 3120 3118 3117 3115 3114 3113 3112 3112
3113 3114 3115 3117 3119 3120 3119 3118 3119 3121 3125 3127 3129 3131 3131 3133 3135 3135 3136 3135 3135 3137 3136 3132 3124 3114 3114 3120 3122 3123 3126 3129 3131 3131 3131 3131 3132 3132 3133 3133 3133 3132 3132 3132 3132 3132 3132 3133 3133 3133 3133 3133 3133 3132 3132 3132 3131 3130 3130 3128 3128 3127 3127 3126 3126 3126 3126 3125 3125 3124 3124 3123 3122 3121 3120 3119 3118 3117 3116 3114 3113 3111 3109 3108 3108 3107
3109 3110 3112 3113 3114 3114 3114 3117 3119 3122 3124 3124 3125 3125 3126 3128 3130 3132 3133 3132 3132 3133 3133 3132 3123 3109 3112 3120 3120 3122 3125 3125 3127 3128 3128 3129 3129 3130 3131 3130 3131 3131 3130 3130 3129 3130 3130 3130 3130 3130 3130 3130 3130 3129 3129 3128 3127 3126 3125 3125 3123 3122 3122 3122 3121 3121 3121 3121 3121 3120 3120 3119 3118 3117 3116 3115 3114 3114 3113 3111 3109 3107 3106 3104 3103 3102
3107 3108 3109 3110 3111 3112 3115 3117 3118 3119 3121 3122 3122 3122 3122 3124 3125 3127 3128 3128 3131 3131 3129 3132 3124 3107 3107 3118 3119 3120 3122 3123 3124 3125 3126 3127 3127 3128 3128 3128 3128 3128 3128 3128 3127 3127 3127 3126 3126 3126 3127 3127 3126 3125 3125 3123 3122 3121 3120 3119 3118 3118 3117 3117 3116 3116 3116 3116 3116 3116 3116 3114 3113 3113 3112 3111 3110 3109 3108 3107 3106 3104 3102 3100 3098 3097
3104 3105 3106 3108 3109 3111 3113 3114 3115 3116 3117 3117 3117 3118 3119 3121 3122 3124 3126 3126 3128 3127 3125 3129 3123 3106 3105 3116 3118 3119 3120 3121 3123 3123 3124 3125 3125 3125 3126 3126 3126 3126 3126 3127 3126 3124 3123 3122 3122 3122 3122 3122 3121 3120 3119 3117 3116 3115 3114 3114 3114 3113 3113 3112 3111 3110 3109 3110 3110 3111 3110 3109 3109 3108 3107 3106 3106 3105 3104 3102 3101 3100 3098 3096 3094 3092
3099 3100 3102 3105 3108 3109 3110 3111 3110 3110 3111 3111 3112 3115 3116 3119 3121 3122 3124 3125 3124 3122 3122 3124 3116 3104 3106 3114 3115 3117 3118 3119 3121 3122 3123 3124 3123 3123 3124 3124 3124 3124 3125 3125 3123 3121 3120 3119 3118 3117 3117 3116 3115 3114 3112 3111 3110 3109 3109 3109 3108 3108 3108 3107 3106 3104 3104 3103 3103 3104 3104 3104 3104 3102 3102 3101 3100 3099 3098 3097 3095 3094 3092 3091 3089 3087
3095 3095 3097 3098 3100 3101 3101 3101 3101 3103 3107 3108 3109 3111 3113 3115 3118 3118 3121 3122 3119 3116 3116 3115 3107 3102 3106 3111 3112 3113 3115 3117 3119 3120 3121 3122 3121 3121 3121 3121 3121 3121 3121 3120 3119 3117 3115 3114 3113 3112 3111 3110 3109 3108 3107 3106 3105 3104 3104 3103 3103 3103 3102 3102 3101 3100 3099 3098 3098 3098 3098 3098 3098 3097 3096 3095 3094 3094 3093 3091 3090 3088 3087 3085 3083 3082
3092 3091 3092 3092 3092 3093 3093 3095 3098 3101 3103 3104 3105 3107 3109 3111 3113 3115 3116 3114 3111 3111 3109 3106 3105 3103 3102 3106 3109 3110 3112 3113 3114 3115 3117 3118 3117 3117 3116 3117 3117 3116 3116 3116 3114 3112 3110 3109 3108 3106 3106 3105 3104 3104 3102 3101 3100 3099 3099 3099 3099 3099 3098 3098 3096 3095 3094 3093 3092 3092 3091 3092 3091 3090 3090 3089 3088 3087 3086 3085 3084 3082 3081 3079 3077 3076
3088 3088 3089 3089 3090 3091 3092 3094 3097 3098 3099 3100 3102 3104 3105 3107 3109 3109 3108 3106 3107 3109 3103 3100 3105 3102 3096 3100 3107 3108 3109 3110 3110 3111 3111 3112 3112 3113 3113 3113 3112 3112 3111 3110 3109 3107 3105 3104 3103 3102 3102 3101 3101 3101 3100 3098 3097 3096 3096 3096 3095 3094 3093 3092 3091 3090 3089 3087 3087 3086 3086 3085 3084 3083 3082 3081 3080 3080 3080 3079 3078 3077 3075 3073 3071 3070
3085 3085 3086 3088 3088 3089 3091 3092 3093 3095 3096 3097 3099 3099 3100 3102 3103 3102 3101 3101 3104 3102 3097 3097 3102 3099 3093 3097 3103 3105 3106 3106 3106 3106 3107 3107 3107 3108 3108 3108 3107 3106 3105 3104 3103 3102 3101 3100 3100 3099 3099 3099 3099 3098 3097 3097 3095 3094 3093 3092 3091 3090 3088 3087 3086 3085 3084 3083 3083 3082 3081 3081 3079 3078 3077 3076 3075 3074 3074 3073 3072 3070 3069 3067 3066 3064
3082 3083 3084 3085 3086 3086 3088 3089 3089 3091 3092 3093 3094 3095 3096 3097 3097 3096 3096 3097 3098 3097 3095 3097 3097 3094 3092 3095 3098 3100 3103 3103 3102 3103 3104 3103 3102 3102 3103 3103 3102 3101 3100 3099 3099 3098 3098 3098 3097 3096 3095 3095 3094 3094 3093 3092 3092 3091 3090 3089 3088 3086 3084 3083 3082 3081 3080 3079 3079 3078 3077 3076 3075 3074 3072 3071 3070 3069 3068 3067 3065 3063 3062 3061 3059 3058
3078 3080 3080 3081 3082 3083 3085 3086 3086 3087 3088 3089 3091 3092 3092 3092 3092 3091 3091 3093 3094 3093 3093 3095 3093 3088 3089 3094 3097 3098 3098 3098 3099 3099 3100 3098 3097 3097 3096 3095 3096 3096 3096 3095 3095 3094 3094 3094 3093 3092 3091 3090 3090 3089 3088 3087 3086 3086 3085 3084 3084 3082 3081 3079 3078 3077 3076 3075 3074 3073 3072 3071 3070 3068 3067 3065 3064 3063 3061 3060 3058 3057 3055 3054 3053 3052
3074 3075 3076 3078 3078 3078 3080 3082 3083 3084 3085 3086 3086 3086 3085 3085 3085 3085 3087 3088 3090 3090 3091 3092 3089 3085 3087 3093 3096 3094 3093 3095 3096 3095 3093 3092 3092 3092 3090 3089 3090 3091 3091 3091 3090 3090 3089 3089 3088 3087 3087 3086 3085 3084 3083 3082 3081 3080 3079 3079 3078 3077 3076 3074 3073 3072 3071 3070 3069 3068 3066 3065 3064 3062 3060 3059 3058 3056 3054 3053 3051 3050 3049 3048 3047 3046
3071 3071 3073 3075 3074 3074 3076 3078 3079 3081 3081 3079 3077 3077 3080 3081 3081 3082 3084 3085 3086 3087 3088 3087 3085 3085 3088 3090 3090 3089 3090 3092 3091 3089 3088 3087 3087 3087 3086 3085 3084 3084 3085 3085 3084 3084 3084 3083 3083 3082 3081 3081 3080 3079 3078 3077 3075 3074 3074 3073 3072 3072 3071 3069 3068 3067 3066 3065 3064 3062 3061 3059 3057 3055 3054 3052 3051 3049 3047 3046 3045 3044 3043 3042 3041 3039
3068 3069 3070 3072 3072 3072 3073 3075 3076 3077 3073 3069 3069 3073 3077 3078 3079 3079 3079 3080 3083 3084 3084 3083 3084 3085 3086 3086 3085 3085 3086 3086 3084 3084 3084 3083 3082 3082 3082 3081 3080 3079 3079 3079 3079 3079 3078 3078 3077 3077 3076 3075 3075 3074 3073 3072 3070 3069 3068 3067 3066 3066 3065 3063 3062 3061 3060 3060 3059 3057 3055 3053 3051 3049 3048 3046 3044 3042 3040 3039 3038 3038 3037 3035 3034 3032
3064 3066 3067 3068 3069 3070 3071 3073 3073 3069 3064 3064 3067 3070 3072 3073 3074 3074 3074 3075 3078 3080 3079 3080 3080 3080 3081 3082 3082 3081 3080 3080 3079 3079 3080 3079 3077 3077 3077 3077 3076 3075 3074 3073 3074 3074 3074 3073 3072 3072 3071 3071 3069 3068 3067 3067 3065 3064 3063 3062 3061 3060 3058 3057 3056 3055 3054 3053 3052 3051 3049 3047 3045 3043 3042 3040 3038 3036 3035 3033 3032 3031 3030 3029 3027 3026
3059 3061 3063 3064 3065 3066 3067 3067 3065 3061 3060 3062 3064 3065 3065 3065 3066 3067 3067 3068 3072 3074 3074 3074 3075 3075 3077 3077 3077 3076 3076 3075 3075 3075 3076 3075 3073 3073 3073 3072 3071 3071 3069 3069 3068 3068 3068 3068 3067 3066 3066 3065 3064 3063 3062 3061 3060 3059 3058 3057 3056 3054 3052 3050 3049 3048 3048 3046 3045 3043 3041 3040 3038 3037 3035 3034 3032 3030 3029 3027 3026 3024 3023 3021 3020 3019
3055 3056 3058 3060 3060 3061 3062 3061 3060 3060 3059 3058 3057 3057 3058 3059 3060 3063 3063 3063 3066 3068 3068 3069 3069 3071 3072 3071 3071 3072 3071 3071 3071 3071 3072 3072 3070 3069 3068 3067 3067 3066 3065 3064 3064 3063 3062 3062 3062 3061 3060 3060 3059 3058 3056 3055 3054 3052 3051 3050 3049 3048 3046 3044 3043 3042 3040 3039 3037 3036 3034 3033 3031 3030 3029 3027 3025 3024 3023 3021 3019 3018 3016 3014 3013 3012
3052 3053 3054 3055 3055 3056 3057 3057 3058 3059 3054 3051 3051 3053 3055 3056 3057 3060 3060 3058 3060 3062 3063 3063 3065 3066 3067 3067 3067 3068 3068 3068 3067 3067 3068 3068 3066 3065 3065 3064 3062 3062 3061 3060 3059 3059 3057 3057 3057 3056 3055 3055 3054 3052 3050 3049 3047 3046 3045 3043 3042 3041 3040 3038 3037 3035 3033 3032 3031 3029 3027 3026 3024 3023 3022 3020 3019 3017 3016 3014 3012 3011 3009 3008 3006 3005
3049 3050 3051 3051 3051 3052 3052 3051 3052 3050 3048 3047 3049 3051 3053 3053 3054 3058 3057 3053 3054 3057 3057 3058 3060 3061 3063 3063 3063 3064 3064 3063 3063 3063 3063 3064 3062 3060 3060 3060 3059 3058 3057 3056 3054 3054 3053 3052 3051 3051 3050 3049 3048 3047 3045 3044 3042 3041 3039 3038 3036 3035 3033 3032 3030 3029 3027 3026 3025 3023 3021 3019 3017 3016 3014 3013 3012 3010 3009 3007 3006 3004 3003 3001 3000 2999
3044 3045 3047 3047 3047 3048 3048 3047 3046 3045 3044 3046 3047 3047 3049 3049 3051 3055 3052 3048 3049 3052 3052 3052 3055 3057 3058 3059 3059 3060 3059 3058 3058 3058 3058 3059 3058 3056 3056 3055 3055 3054 3053 3052 3050 3049 3047 3046 3045 3044 3044 3043 3042 3041 3040 3038 3037 3036 3034 3032 3031 3029 3027 3026 3024 3023 3021 3020 3018 3016 3015 3013 3011 3010 3008 3006 3005 3004 3002 3001 2999 2998 2996 2995 2993 2992
3038 3040 3041 3042 3043 3044 3045 3044 3043 3041 3041 3044 3044 3045 3046 3046 3047 3048 3045 3045 3048 3049 3048 3048 3050 3052 3053 3053 3054 3055 3055 3054 3054 3053 3052 3053 3053 3052 3051 3051 3050 3049 3048 3047 3046 3044 3042 3041 3039 3039 3038 3037 3035 3034 3033 3032 3031 3030 3028 3027 3025 3023 3022 3020 3019 3017 3015 3014 3012 3010 3008 3007 3005 3003 3002 3000 2999 2997 2996 2995 2993 2992 2990 2989 2988 2986
3033 3035 3036 3037 3039 3040 3041 3041 3041 3037 3037 3040 3041 3041 3042 3042 3041 3041 3042 3044 3046 3046 3045 3046 3046 3048 3048 3049 3049 3050 3050 3050 3050 3048 3048 3048 3047 3047 3046 3046 3045 3044 3043 3042 3041 3039 3037 3036 3035 3034 3034 3032 3030 3028 3026 3024 3024 3024 3023 3021 3019 3017 3016 3014 3013 3011 3009 3007 3006 3004 3002 3000 2999 2997 2996 2994 2993 2991 2990 2989 2987 2986 2984 2983 2982 2981
3028 3030 3031 3031 3033 3035 3037 3038 3037 3033 3032 3035 3037 3036 3035 3035 3035 3037 3041 3042 3042 3043 3043 3042 3042 3043 3044 3044 3044 3044 3044 3045 3044 3044 3044 3043 3042 3042 3041 3040 3040 3039 3038 3037 3036 3035 3033 3031 3030 3029 3028 3028 3026 3023 3020 3018 3016 3016 3015 3014 3013 3011 3009 3008 3006 3005 3003 3001 3000 2998 2996 2994 2992 2991 2989 2988 2986 2985 2983 2982 2981 2979 2978 2977 2976 2975
3023 3024 3024 3025 3027 3029 3029 3029 3028 3028 3029 3031 3031 3030 3030 3030 3031 3034 3036 3037 3038 3038 3038 3037 3037 3038 3038 3039 3039 3039 3039 3039 3039 3039 3039 3039 3038 3037 3036 3035 3035 3034 3033 3032 3031 3029 3027 3025 3023 3022 3022 3021 3020 3017 3015 3012 3010 3009 3008 3006 3005 3003 3002 3001 2999 2998 2996 2995 2993 2991 2989 2988 2986 2984 2982 2981 2979 2978 2976 2975 2974 2973 2972 2971 2970 2969
3017 3017 3019 3020 3021 3022 3022 3022 3024 3026 3028 3028 3027 3026 3026 3027 3028 3030 3031 3032 3033 3033 3033 3033 3032 3032 3033 3034 3034 3035 3035 3035 3034 3034 3034 3033 3033 3033 3031 3031 3030 3029 3028 3027 3025 3023 3022 3019 3017 3016 3015 3014 3013 3011 3009 3007 3004 3002 3002 3000 2998 2996 2995 2993 2992 2991 2989 2988 2986 2984 2983 2981 2979 2977 2975 2974 2972 2971 2969 2968 2967 2966 2965 2964 2963 2962
3013 3014 3016 3017 3018 3019 3019 3020 3022 3024 3025 3025 3024 3023 3023 3024 3025 3025 3027 3028 3029 3029 3029 3029 3028 3029 3029 3029 3030 3030 3030 3029 3029 3029 3028 3028 3028 3027 3026 3025 3025 3023 3022 3021 3019 3018 3016 3014 3012 3010 3008 3008 3007 3005 3004 3002 2999 2996 2995 2993 2991 2990 2988 2986 2985 2983 2982 2981 2979 2978 2976 2974 2973 2971 2969 2967 2965 2964 2962 2961 2960 2959 2958 2957 2956 2955
3011 3012 3013 3014 3015 3016 3015 3016 3018 3020 3020 3021 3021 3020 3019 3020 3021 3022 3023 3025 3025 3025 3026 3026 3026 3026 3025 3025 3025 3026 3025 3024 3024 3024 3023 3023 3022 3021 3020 3020 3019 3018 3016 3015 3013 3011 3009 3008 3006 3004 3003 3002 3001 2999 2997 2996 2994 2991 2989 2987 2985 2983 2981 2980 2978 2976 2975 2973 2972 2970 2969 2967 2965 2964 2962 2960 2958 2957 2955 2954 2953 2952 2951 2950 2949 2948
3008 3009 3009 3010 3011 3012 3012 3013 3015 3016 3017 3017 3017 3016 3016 3016 3016 3017 3019 3021 3022 3022 3022 3022 3022 3021 3020 3020 3020 3020 3020 3020 3018 3018 3018 3018 3017 3016 3015 3014 3013 3012 3011 3010 3008 3006 3004 3002 3000 2998 2997 2996 2995 2993 2992 2990 2988 2985 2983 2981 2979 2976 2975 2973 2971 2969 2968 2966 2965 2963 2962 2960 2958 2956 2955 2953 2951 2950 2948 2947 2946 2945 2944 2943 2942 2941
3004 3004 3005 3007 3008 3008 3009 3010 3012 3012 3013 3013 3013 3012 3012 3013 3013 3013 3014 3016 3017 3017 3017 3017 3016 3015 3015 3015 3015 3015 3015 3015 3013 3013 3013 3012 3011 3010 3009 3008 3007 3006 3005 3004 3002 3001 2999 2997 2995 2993 2992 2990 2989 2987 2985 2984 2983 2980 2978 2976 2973 2971 2969 2967 2965 2963 2961 2959 2958 2956 2954 2953 2951 2949 2947 2945 2944 2942 2941 2940 2939 2938 2937 2936 2936 2935
2999 2999 3000 3002 3002 3002 3005 3007 3008 3009 3010 3009 3008 3008 3009 3009 3009 3010 3010 3011 3011 3012 3012 3012 3011 3010 3010 3009 3009 3009 3009 3009 3009 3008 3007 3006 3006 3004 3003 3002 3001 3000 2999 2998 2996 2995 2993 2991 2989 2987 2986 2985 2983 2981 2979 2978 2977 2975 2973 2971 2968 2966 2963 2961 2959 2957 2955 2953 2951 2949 2947 2945 2943 2941 2939 2938 2936 2935 2934 2933 2932 2931 2931 2930 2929 2929
2993 2994 2997 2998 2997 2998 3002 3004 3004 3005 3006 3005 3004 3005 3005 3005 3006 3006 3006 3006 3006 3007 3007 3007 3006 3006 3005 3004 3004 3004 3003 3003 3003 3002 3001 3001 3000 2998 2998 2996 2995 2993 2992 2991 2989 2988 2987 2985 2983 2981 2980 2979 2977 2975 2974 2972 2971 2969 2967 2965 2963 2960 2958 2956 2953 2951 2949 2947 2944 2943 2941 2939 2937 2935 2933 2931 2930 2929 2928 2927 2926 2925 2924 2924 2923 2923